Weather History for Keene, NH

Change the Weather History Date:

Thursday, December 20, 2012

  Actual Average Record
Temperature  
Mean Temperature 32 °F -  
Max Temperature 39 °F 31 °F 60 °F (1957)
Min Temperature 24 °F 14 °F -19 °F (1951)
Degree Days  
Heating Degree Days 34    
Moisture  
Dew Point 26 °F    
Average Humidity 72    
Maximum Humidity 93    
Minimum Humidity 60    
Precipitation  
Precipitation 0.00 in - - ()
Sea Level Pressure  
Sea Level Pressure 30.11 in    
Wind  
Wind Speed 5 mph (NE)    
Max Wind Speed 9 mph    
Max Gust Speed -    
Visibility 10 miles    
Events      
Averages and records for this station are not official NWS values.
T = Trace of Precipitation, MM = Missing Value Source: NWS Daily Summary

Daily Weather History Graph

Daily Weather History Graph

Search for Another Location

Airport:

Trip Planner

Search our weather history database for the weather conditions in past years. The results will help you decide how hot, cold, wet, or windy it might be!

Date:

Astronomy

Dec. 20, 2012 Rise Set
Actual Time 7:16 AM EST 4:17 PM EST
Civil Twilight 6:44 AM EST 4:49 PM EST
Nautical Twilight 6:08 AM EST 5:25 PM EST
Astronomical Twilight 5:33 AM EST 6:00 PM EST
Moon 11:41 AM EST (12/20) No Moon Set
Length of Visible Light 10h 05m
Length of Day
9h 00m
First Quarter, 55% of the Moon is Illuminated
Dec 20
First Quarter
Dec 28
Full
Jan 4
Last Quarter
Jan 11
New
Jan 18
First Quarter

Hourly Weather History & Observations

Time (EST) Temp. Windchill Dew Point Humidity Pressure Visibility Wind Dir Wind Speed Gust Speed Precip Events Conditions
12:15 AM 37.4 °F 32.1 °F 26.6 °F 65% 30.07 in 10.0 mi ENE 6.9 mph - N/A   Overcast
12:35 AM 37.4 °F 32.1 °F 26.6 °F 65% 30.06 in 10.0 mi North 6.9 mph - N/A   Overcast
12:55 AM 37.4 °F 34.9 °F 26.6 °F 65% 30.07 in 10.0 mi ENE 3.5 mph - N/A   Overcast
1:15 AM 37.4 °F 31.4 °F 26.6 °F 65% 30.08 in 10.0 mi NE 8.1 mph - N/A   Overcast
1:35 AM 37.4 °F 30.8 °F 26.6 °F 65% 30.08 in 10.0 mi NE 9.2 mph - N/A   Overcast
1:55 AM 35.6 °F 29.2 °F 24.8 °F 65% 30.08 in 10.0 mi ENE 8.1 mph - N/A   Scattered Clouds
2:15 AM 35.6 °F 30.7 °F 24.8 °F 65% 30.09 in 10.0 mi NE 5.8 mph - N/A   Clear
2:35 AM 33.8 °F 30.8 °F 24.8 °F 70% 30.09 in 10.0 mi North 3.5 mph - N/A   Clear
2:55 AM 33.8 °F - 24.8 °F 70% 30.10 in 10.0 mi Calm Calm - N/A   Clear
3:15 AM 30.2 °F - 24.8 °F 80% 30.11 in 10.0 mi Calm Calm - N/A   Clear
3:35 AM 30.2 °F 26.7 °F 26.6 °F 86% 30.10 in 10.0 mi North 3.5 mph - N/A   Clear
3:55 AM 30.2 °F - 23.0 °F 75% 30.10 in 10.0 mi Calm Calm - N/A   Clear
4:15 AM 28.4 °F - 24.8 °F 86% 30.11 in 10.0 mi Calm Calm - N/A   Partly Cloudy
4:35 AM 28.4 °F - 24.8 °F 86% 30.10 in 10.0 mi North - - N/A   Scattered Clouds
4:55 AM 26.6 °F - 24.8 °F 93% 30.11 in 10.0 mi North - - N/A   Clear
5:15 AM 26.6 °F - 23.0 °F 86% 30.12 in 10.0 mi North - - N/A   Clear
5:35 AM 24.8 °F - 21.2 °F 86% 30.13 in 10.0 mi North - - N/A   Clear
5:55 AM 26.6 °F - 24.8 °F 93% 30.14 in 10.0 mi North - - N/A   Clear
6:15 AM 26.6 °F - 24.8 °F 93% 30.15 in 10.0 mi North - - N/A   Clear
6:35 AM 26.6 °F - 21.2 °F 80% 30.16 in 10.0 mi North - - N/A   Clear
6:55 AM 26.6 °F - 23.0 °F 86% 30.16 in 10.0 mi North - - N/A   Partly Cloudy
7:35 AM 26.6 °F - 24.8 °F 93% 30.18 in 10.0 mi North - - N/A   Overcast
7:55 AM 26.6 °F - 24.8 °F 93% 30.19 in 10.0 mi North - - N/A   Mostly Cloudy
8:15 AM 28.4 °F - 24.8 °F 86% 30.20 in 10.0 mi North - - N/A   Overcast
8:35 AM 28.4 °F - 24.8 °F 86% 30.20 in 10.0 mi North - - N/A   Overcast
8:55 AM 28.4 °F - 26.6 °F 93% 30.20 in 10.0 mi North - - N/A   Scattered Clouds
9:15 AM 30.2 °F - 28.4 °F 93% 30.21 in 10.0 mi North - - N/A   Clear
9:35 AM 33.8 °F - 28.4 °F 81% 30.22 in 10.0 mi North - - N/A   Partly Cloudy
9:55 AM 33.8 °F - 28.4 °F 81% 30.21 in 10.0 mi North - - N/A   Mostly Cloudy
10:15 AM 35.6 °F - 28.4 °F 75% 30.21 in 10.0 mi North - - N/A   Mostly Cloudy
10:35 AM 35.6 °F - 26.6 °F 70% 30.20 in 10.0 mi North - - N/A   Scattered Clouds
10:55 AM 37.4 °F - 26.6 °F 65% 30.19 in 10.0 mi North - - N/A   Partly Cloudy
11:15 AM 37.4 °F - 26.6 °F 65% 30.18 in 10.0 mi North - - N/A   Mostly Cloudy
11:35 AM 37.4 °F - 26.6 °F 65% 30.18 in 10.0 mi North - - N/A   Scattered Clouds
11:55 AM 37.4 °F - 26.6 °F 65% 30.17 in 10.0 mi North - - N/A   Scattered Clouds
12:15 PM 39.2 °F - 26.6 °F 61% 30.16 in 10.0 mi North - - N/A   Mostly Cloudy
12:35 PM 39.2 °F - 26.6 °F 61% 30.14 in 10.0 mi North - - N/A   Overcast
12:55 PM 39.2 °F - 26.6 °F 61% 30.13 in 10.0 mi North - - N/A   Overcast
1:35 PM 39.2 °F - 26.6 °F 61% 30.12 in 10.0 mi North - - N/A   Overcast
1:55 PM 39.2 °F - 26.6 °F 61% 30.11 in 10.0 mi North - - N/A   Overcast
2:15 PM 39.2 °F - 26.6 °F 61% 30.10 in 10.0 mi North - - N/A   Overcast
2:35 PM 39.2 °F - 26.6 °F 61% 30.10 in 10.0 mi North - - N/A   Overcast
2:55 PM 39.2 °F - 26.6 °F 61% 30.10 in 10.0 mi North - - N/A   Overcast
3:35 PM 39.2 °F - 26.6 °F 61% 30.12 in 10.0 mi North - - N/A   Overcast
4:35 PM 37.4 °F - 26.6 °F 65% 30.10 in 10.0 mi North - - N/A   Overcast
5:15 PM 37.4 °F - 26.6 °F 65% 30.10 in 10.0 mi North - - N/A   Overcast
5:35 PM 37.4 °F - 24.8 °F 60% 30.09 in 10.0 mi North - - N/A   Overcast
5:55 PM 37.4 °F - 24.8 °F 60% 30.08 in 10.0 mi North - - N/A   Overcast
6:15 PM 37.4 °F - 24.8 °F 60% 30.08 in 10.0 mi North - - N/A   Overcast
6:35 PM 37.4 °F - 24.8 °F 60% 30.08 in 10.0 mi North - - N/A   Overcast
6:55 PM 35.6 °F - 24.8 °F 65% 30.09 in 10.0 mi North - - N/A   Overcast
7:15 PM 35.6 °F - 24.8 °F 65% 30.09 in 10.0 mi North - - N/A   Overcast
7:35 PM 35.6 °F - 24.8 °F 65% 30.09 in 10.0 mi North - - N/A   Overcast
7:55 PM 35.6 °F - 24.8 °F 65% 30.09 in 10.0 mi North - - N/A   Overcast
8:15 PM 35.6 °F - 26.6 °F 70% 30.08 in 10.0 mi North - - N/A   Overcast
8:55 PM 35.6 °F - 26.6 °F 70% 30.07 in 10.0 mi North - - N/A   Overcast
9:15 PM 35.6 °F - 26.6 °F 70% 30.05 in 10.0 mi North - - N/A   Overcast
9:55 PM 35.6 °F - 26.6 °F 70% 30.06 in 10.0 mi North - - N/A   Overcast
10:15 PM 35.6 °F - 26.6 °F 70% 30.05 in 10.0 mi North - - N/A   Overcast
10:35 PM 35.6 °F - 26.6 °F 70% 30.03 in 10.0 mi North - - N/A   Overcast
10:55 PM 35.6 °F - 26.6 °F 70% 30.01 in 10.0 mi North - - N/A   Overcast
11:15 PM 35.6 °F - 26.6 °F 70% 30.01 in 10.0 mi North - - N/A   Mostly Cloudy
11:55 PM 35.6 °F - 28.4 °F 75% 29.96 in 10.0 mi North - - N/A   Mostly Cloudy